Weather in Hamme

Belgium     51°05′27″N   4°08′27″E
temp.,
°C
wind,
m/s
gust,
m/s
humid.,
%
clouds,
%
prec.,
mm/h
press.,
hPa
HPBL,
m
21 april, wed
wed2123:00+11ne357164 0.0 1017121
02:00+10nne227699 0.0 101728
05:00+10ne2275100 0.0 101740
08:00+10n2366100 0.0 101790
11:00+11nne3563100 0.0 1019371
14:00+14nne455488 0.0 1019969
17:00+15n655184 0.1 10181657
20:00+11nne59618 0.1 1019660
22 april, thu
thu2223:00+6ne6116584 0.0 1023453
02:00+3ne49746 0.0 1024297
05:00+2ne378085 0.0 1025166
08:00+3ne377447 0.0 1026261
11:00+8ne4555100 0.0 1027966
14:00+12ne35425 0.0 10271442
17:00+13n454131 0.0 10261621
20:00+9n485838 0.0 1027242
23 april, fri
fri2323:00+5nne36715 0.0 1028116
02:00+3ne35865 0.0 102981
05:00+2ene33915 0.0 102950
08:00+4ene24855 0.0 1030144
11:00+9ene345639 0.0 1030763
14:00+14ene34392 0.0 10291237
17:00+15ne45370 0.0 10281404
20:00+11ne36582 0.0 1028141
24 april, sat
sat2423:00+7ene48640 0.0 1029131
02:00+4ene48835 0.0 1028164
05:00+3ene4786100 0.0 1028142
08:00+5ene488074 0.0 1028246
11:00+11ene565594 0.0 1028784
14:00+14ene6741100 0.0 10271205
17:00+15ene674696 0.0 10261419
20:00+12ne61064100 0.0 1026503
25 april, sun
sun2523:00+8ne4107767 0.0 1027284
02:00+6ene4107835 0.0 1027273
05:00+4ene4978100 0.0 1026230
08:00+5ene497484 0.0 1026276
11:00+11ene685627 0.0 1025761
14:00+15ene564242 0.0 10231303
17:00+16ene5641100 0.0 10211388
20:00+12ne51053100 0.0 1019319